Home   Weather   Steffisburg   Past weeks

Flag for Switzerland Past Weather in Steffisburg, Bern, Switzerland — Yesterday and Last 2 Weeks

Now
63 °F

Scattered showers. Broken clouds.


Feels Like: 63 °F
Forecast: 50 / 60 °F
Wind: 12 mph from West

Location: Bern / Belp

Current Time: Oct 1, 2016 at 3:59:08 PM

Latest Report: Oct 1, 2016 at 3:20 PM


Visibility: N/A

Pressure: 29.95 "Hg (27.97 "Hg at 582m altitude)

Humidity: 73%

Dew Point: 54 °F

Location of SteffisburgLocation

Past Weather in Steffisburg — Graph

°F

Steffisburg Temperature Yesterday

Maximum temperature yesterday: 75 °F (at 3:50 PM)
Minimum temperature yesterday: 43 °F (at 4:50 AM)
Average temperature yesterday: 57 °F

High & Low Weather Summary for the Past Weeks

 TemperatureHumidityPressure
High75 °F (Sep 29, 2:50 PM)100% (Sep 17, 3:20 AM)30.48 "Hg (Sep 17, 3:20 AM)
Low43 °F (Sep 22, 2:20 AM)36% (Sep 29, 3:50 PM)29.92 "Hg (Oct 1, 5:50 AM)
Average56 °F85%30.14 "Hg
* Reported Sep 16 2:20 PM — Oct 1 2:20 PM, Steffisburg, Weather by CustomWeather, © 2016

Note: Actual official high and low records may vary slightly from our data, if they occured in-between our weather recording intervals... More about our weather records

Advertising

Steffisburg Weather History for the Previous 24 Hours

Scroll right to see more
 ConditionsComfort  
Time TempWeatherWind HumidityBarometerVisibility
2:20 PM
Sat, Oct 1
66 °FPartly sunny.10 mph64%29.92 "HgN/A
1:50 PM66 °FPartly sunny.12 mph60%29.92 "HgN/A
1:20 PM64 °FBroken clouds.1 mph64%29.92 "HgN/A
12:50 PM64 °FBroken clouds.No wind64%29.92 "HgN/A
12:20 PM63 °FBroken clouds.5 mph73%29.92 "HgN/A
11:50 AM63 °FBroken clouds.5 mph68%29.95 "HgN/A
11:20 AM61 °FBroken clouds.6 mph72%29.92 "HgN/A
10:50 AM59 °FScattered clouds.7 mph77%29.92 "HgN/A
10:20 AM55 °FPartly sunny.6 mph88%29.92 "HgN/A
9:50 AM54 °FPartly sunny.6 mph88%29.92 "HgN/A
9:20 AM52 °FPartly sunny.3 mph94%29.92 "HgN/A
8:50 AM50 °FPartly sunny.3 mph94%29.92 "HgN/A
8:20 AM48 °FPartly sunny.5 mph100%29.92 "HgN/A
7:50 AM48 °FSunny.1 mph94%29.92 "Hg10 mi
7:20 AM48 °FClear.2 mph94%29.92 "Hg10 mi
6:50 AM48 °FClear.5 mph94%29.92 "Hg10 mi
6:20 AM48 °FClear.2 mph94%29.92 "Hg10 mi
5:50 AM48 °FClear.5 mph100%29.92 "Hg10 mi
5:20 AM48 °FClear.1 mph100%29.95 "Hg10 mi
4:50 AM50 °FClear.1 mph94%29.95 "Hg10 mi
4:20 AM50 °FClear.2 mph94%29.95 "Hg10 mi
3:50 AM50 °FClear.2 mph94%29.95 "HgN/A
3:20 AM50 °FClear.3 mph94%29.95 "HgN/A
2:50 AM50 °FClear.3 mph94%29.98 "HgN/A
2:20 AM50 °FClear.1 mph94%29.98 "HgN/A
1:50 AM50 °FClear.1 mph94%29.98 "Hg10 mi
1:20 AM50 °FClear.2 mph94%29.98 "Hg10 mi
12:50 AM52 °FClear.1 mph88%29.98 "HgN/A
12:20 AM52 °FClear.1 mph88%29.98 "HgN/A
11:50 PM
Fri, Sep 30
52 °FClear.2 mph94%29.98 "Hg10 mi
11:20 PM52 °FClear.3 mph94%30.01 "HgN/A
10:50 PM54 °FPassing clouds.2 mph88%30.01 "HgN/A
10:20 PM55 °FClear.1 mph82%30.01 "Hg10 mi
9:50 PM55 °FClear.7 mph82%30.01 "Hg10 mi
9:20 PM54 °FClear.9 mph88%30.01 "Hg10 mi
8:50 PM55 °FClear.8 mph82%30.01 "Hg10 mi
8:20 PM57 °FClear.2 mph77%30.01 "Hg10 mi
7:50 PM59 °FClear.2 mph77%30.01 "Hg10 mi
7:20 PM61 °FClear.1 mph72%29.98 "Hg10 mi
6:50 PM66 °FSunny.3 mph60%29.98 "Hg10 mi
6:20 PM70 °FSunny.3 mph53%30.01 "Hg10 mi
5:50 PM73 °FSunny.3 mph44%30.01 "Hg10 mi
5:20 PM73 °FSunny.5 mph41%30.01 "Hg10 mi
4:50 PM75 °FPassing clouds.6 mph36%30.01 "HgN/A
4:20 PM75 °FPassing clouds.7 mph39%30.01 "HgN/A
3:50 PM75 °FPassing clouds.9 mph36%30.01 "HgN/A
3:20 PM73 °FSunny.14 mph44%30.04 "Hg10 mi
Weather by CustomWeather, © 2016

See weather overviewHow to use our weather pages